{"data":{"norad_id":62436,"intl_designator":"2024-251E","name":"STARLINK-32697","alt_names":[],"object_type":"PAYLOAD","status":"ACTIVE","operator":null,"country":"US","launch_date":"2024-12-29","launch_site_code":"AFWTR","launch_vehicle":null,"mission":null,"orbit_class":"UNKNOWN","rcs_meters":null,"size_class":null,"mass_kg":null,"dimensions":null,"purposes":["comms"],"wikipedia_slug":null,"has_3d_model":false,"image_url":null,"decayed_at":null,"tle_current":{"epoch":"2026-05-24T19:28:03.933696Z","epoch_age_seconds":101957,"freshness":"FRESH","line1":"1 62436U 24251E   26144.81115664  .00016153  00000+0  55631-3 0  9992","line2":"2 62436  53.1610 341.6793 0000703  81.0660 279.0420 15.30199399 79608","mean_motion":15.30199399,"eccentricity":7.03e-5,"inclination_deg":53.161,"raan_deg":341.6793,"arg_perigee_deg":81.066,"mean_anomaly_deg":279.042,"bstar":0.00055631,"rev_number":7960,"period_min":94.105382667191,"perigee_km":474.73507312095,"apogee_km":475.69865467421,"semimajor_km":6853.3538638976,"source":"CELESTRAK","updated_at":"2026-05-25T13:38:19.657612Z"}}}